Temperature
6 4 4 5 5 5 5 4 3 4 6 5 5 5 6 7 6 6 6 7 7 7 7 8 8 8 8 8 8 9 9 9 9 9 9 9 10 10 11 11 11 11 11 11
4 4 6 6 6 6 5 4 3 4 6 6 5 5 6 6 6 7 6 6 6 7 7 7 7 7 7 8 8 8 8 9 9 9 9 9 9 10 10 11 11 11 11 11
5 5 7 7 6 5 5 4 4 4 5 4 4 4 5 6 6 7 7 6 6 6 6 7 7 7 7 7 7 8 8 8 8 9 9 9 9 9 10 10 11 11 11 11
5 6 6 6 5 5 4 5 5 4 3 2 3 3 4 4 5 6 6 6 6 6 6 6 6 7 7 7 7 7 8 8 8 8 8 8 8 8 9 10 10 10 10 11
4 5 5 5 5 5 4 5 4 4 2 2 2 2 3 4 4 5 5 6 6 6 6 6 6 6 6 7 7 7 7 8 8 8 8 8 8 8 9 9 10 10 10 10
4 5 5 5 6 5 5 3 3 2 1 1 2 2 2 3 4 4 5 6 6 6 6 6 6 6 6 6 7 7 7 7 8 8 8 8 8 8 8 9 9 9 9 10
3 4 5 5 5 4 3 1 1 0 -1 1 3 3 3 4 4 4 5 6 6 6 6 6 6 6 6 6 6 7 7 7 7 7 8 8 8 8 8 9 9 9 9 9
1 3 4 4 4 4 3 2 1 1 0 1 2 2 3 4 4 5 6 6 6 6 6 6 5 5 5 6 6 6 6 7 7 7 7 8 8 8 8 8 9 9 9 9
1 2 3 4 5 4 3 2 2 0 -1 -0 1 2 3 4 4 4 5 5 5 5 5 5 5 5 5 5 5 6 6 6 6 7 7 7 8 8 8 8 9 9 9 9
2 1 2 3 4 4 3 2 -0 -0 -1 -0 1 1 2 3 3 4 4 4 5 5 5 5 5 5 5 5 5 6 6 6 6 6 7 7 7 8 8 8 8 8 9 9
2 0 1 1 2 3 3 2 1 -1 -1 -0 -0 2 3 2 3 3 3 4 4 5 5 5 5 5 5 5 5 5 5 5 6 6 6 7 7 7 8 8 8 8 9 9
2 -0 -1 0 2 3 2 2 0 -0 -1 -1 -0 2 4 3 3 3 3 4 4 4 4 4 4 4 4 5 5 5 5 5 5 6 6 6 7 7 7 8 8 8 8 9
2 -0 -0 1 2 1 1 1 0 -0 -1 -1 -1 2 4 3 3 4 4 4 4 4 4 4 4 4 4 4 4 4 5 5 5 5 6 6 6 6 7 7 7 8 8 9
3 -1 -0 1 2 0 -0 0 0 -0 -1 -1 0 2 3 3 3 3 3 4 4 4 4 4 4 4 4 4 4 4 4 5 5 5 5 5 6 6 6 7 7 8 8 8
2 -0 -1 0 1 1 1 1 1 0 -0 -0 1 1 3 3 2 2 3 3 3 3 3 3 3 3 3 3 4 4 4 4 4 4 5 5 5 5 6 6 7 7 8 8
0 -0 -1 -0 1 1 1 1 1 1 1 1 1 2 3 3 3 2 3 3 3 3 3 3 3 3 3 3 3 3 4 4 4 4 4 5 5 5 6 6 7 7 7 8
-1 -1 -1 -0 -0 0 0 1 1 1 1 1 1 2 2 2 2 2 2 3 3 3 3 2 2 2 2 3 3 3 3 3 4 4 4 4 5 5 6 6 6 7 7 7
-1 -1 -1 -1 -1 -1 2 2 2 1 1 1 1 2 2 2 2 3 3 3 2 2 2 2 2 2 2 2 2 3 3 3 3 4 4 4 4 5 5 6 6 6 7 7
0 -1 -1 -1 -2 -1 1 2 1 1 0 1 1 2 1 2 2 2 3 3 2 2 2 2 2 2 2 2 2 2 3 3 3 3 3 4 4 4 5 5 5 6 6 7
-0 -1 -1 -1 -1 -1 1 2 2 1 -0 1 1 1 1 1 -0 1 3 2 2 2 2 1 1 1 2 2 2 2 2 2 3 3 3 3 3 4 4 5 5 6 6 6
-1 -1 -1 -1 -1 -0 1 2 2 0 0 2 2 2 1 0 1 2 2 2 2 1 1 1 1 1 1 1 2 2 2 2 2 2 3 3 3 4 4 5 5 5 5 6
-1 -2 -2 -2 -1 0 1 1 0 1 2 3 2 2 2 2 2 2 1 1 1 1 1 1 1 1 1 1 1 1 2 2 2 2 2 3 3 3 4 4 5 5 5 5
-1 -1 -1 -1 1 1 2 2 3 3 3 3 2 2 2 1 1 1 1 1 1 0 0 0 0 1 1 1 1 1 1 2 2 2 2 2 3 3 4 4 4 4 5 5
-1 -1 -1 -2 -1 0 2 2 3 3 2 2 2 2 1 1 1 0 0 0 -0 -0 -0 0 0 0 1 1 1 1 1 1 1 1 2 2 2 3 3 4 4 4 4 4
-1 -2 -2 -1 -1 -0 1 2 2 2 2 2 1 1 1 0 0 -0 -0 -0 -1 -1 -0 -0 -0 0 0 1 1 1 1 1 1 1 1 1 2 2 3 3 4 4 4 4
-1 -1 -1 0 0 -0 0 2 2 1 1 1 1 0 0 -0 -1 -1 -1 -1 -1 -1 -1 -1 -0 -0 0 0 0 0 0 0 0 1 1 1 1 2 2 3 3 3 4 4
Wind_Speed
2 3 2 5 5 6 6 8 13 13 11 9 13 19 19 14 8 8 7 8 8 9 9 8 7 6 5 5 5 5 5 6 4 4 5 6 8 7 7 8 11 13 14 14
4 3 6 5 4 5 6 10 10 12 8 10 13 17 13 9 5 5 6 8 9 9 10 8 7 6 5 6 7 7 6 6 6 6 5 6 8 7 8 8 11 14 14 14
3 6 4 4 6 6 8 8 9 12 13 6 7 9 6 5 4 5 5 6 7 8 9 8 7 7 6 6 7 7 7 7 7 7 5 5 5 5 7 8 9 12 14 14
5 5 4 5 5 4 8 7 10 12 9 6 3 6 7 5 6 7 7 6 7 8 8 8 8 8 7 7 8 7 7 7 7 6 6 8 7 8 8 7 8 11 13 14
6 4 4 5 6 4 7 9 11 9 5 5 3 4 8 5 5 7 7 7 7 7 8 8 8 8 8 8 8 7 6 6 6 6 7 9 8 7 6 6 9 10 11 12
6 5 3 4 4 4 6 7 6 3 3 3 3 2 7 3 5 6 7 8 8 8 8 9 9 9 9 8 7 7 6 7 6 7 7 9 9 7 7 8 9 9 9 10
8 6 4 2 4 5 6 6 6 8 5 5 5 4 7 6 4 5 7 9 9 9 9 10 11 11 11 10 9 9 7 8 7 6 7 8 8 8 9 9 9 10 8 9
5 8 4 2 1 3 2 4 2 3 5 7 6 5 6 5 5 6 6 7 9 10 10 10 10 11 11 11 10 9 8 8 6 6 6 7 7 7 7 8 8 10 10 10
2 7 5 4 3 2 1 1 4 3 4 6 7 7 7 4 6 7 8 9 10 11 11 11 11 11 11 10 9 9 8 7 6 5 5 6 7 7 7 8 7 7 9 9
5 6 7 6 4 1 3 3 4 2 3 6 8 6 5 5 7 9 10 10 11 11 12 12 11 11 10 10 9 9 8 7 6 5 4 5 5 7 7 7 8 8 9 11
4 4 7 5 3 4 0 1 2 2 3 3 6 8 5 6 6 8 10 11 12 13 12 11 11 11 11 10 9 9 9 7 6 5 5 5 5 5 6 7 9 9 9 12
4 3 6 9 7 4 4 5 5 3 5 4 5 10 6 6 6 8 11 13 13 13 12 12 11 11 10 10 9 9 8 7 7 6 6 5 5 5 5 6 8 9 10 11
5 3 5 8 3 2 1 3 4 4 3 6 7 11 5 7 11 12 14 15 14 14 13 12 11 11 10 10 10 10 8 7 6 6 6 6 5 5 6 6 7 8 10 11
4 5 8 10 8 4 7 8 6 5 6 8 13 20 20 17 16 16 15 14 13 13 12 12 11 11 10 10 10 10 10 7 7 6 6 6 6 6 7 7 7 7 9 10
5 6 9 15 14 11 16 18 13 14 13 13 18 21 24 19 15 14 13 13 13 13 13 12 11 10 10 11 11 10 10 8 7 7 6 6 6 7 6 6 6 6 7 9
5 5 5 10 11 13 20 21 19 18 16 19 22 24 20 15 12 11 12 12 12 12 12 12 12 11 11 11 11 11 10 9 7 6 7 7 6 6 5 5 4 5 5 7
6 5 4 7 5 7 12 13 12 10 10 11 15 16 13 10 11 11 11 10 10 11 12 11 11 11 11 11 10 10 10 9 7 7 7 7 6 5 5 3 3 4 4 5
8 6 4 5 3 9 10 4 7 9 13 13 13 12 10 10 10 9 9 8 10 11 11 11 10 10 10 10 10 9 9 8 7 7 7 7 7 6 4 3 2 3 4 4
11 8 5 4 5 11 10 6 6 7 10 10 11 11 9 8 7 8 8 7 9 10 10 10 10 10 10 10 10 9 9 9 7 7 7 6 6 6 5 4 3 2 3 4
8 8 7 5 5 9 9 5 3 0 8 7 6 8 8 5 7 10 9 9 10 11 10 10 9 9 9 10 8 8 9 8 8 8 7 6 6 6 5 5 3 2 2 4
5 6 11 11 10 11 9 5 3 2 8 5 5 7 7 6 9 10 11 10 10 11 11 10 9 9 9 9 8 8 9 8 8 7 7 6 5 5 5 4 3 1 1 2
10 8 9 7 9 12 6 5 7 10 6 5 7 7 8 10 11 11 11 11 11 11 11 10 9 10 9 8 7 9 9 9 8 6 6 6 6 5 5 4 3 1 2 2
11 11 8 11 12 7 6 8 7 5 6 7 7 9 9 10 11 11 10 11 11 11 10 9 9 10 10 8 7 8 9 8 7 6 6 6 6 5 4 4 3 1 2 2
7 6 6 8 12 10 9 8 8 8 9 9 9 10 9 10 11 11 10 10 10 10 10 9 9 10 10 9 8 8 9 7 6 6 6 5 5 6 5 4 3 2 3 3
9 7 7 11 11 8 9 10 11 10 9 9 9 9 9 10 11 10 10 10 10 10 9 8 8 10 11 9 9 8 7 6 6 6 5 5 5 5 4 4 3 3 4 5
8 10 10 12 10 8 9 7 8 9 10 10 9 10 9 8 10 10 10 9 9 9 9 9 9 9 9 9 9 8 6 5 5 5 5 4 4 4 3 3 3 3 4 4
Wind_Direction
35 58 299 268 233 238 262 270 280 279 284 293 278 284 291 290 288 294 300 303 306 301 296 300 297 294 297 295 290 276 259 246 235 236 243 232 227 221 213 210 203 193 186 183
22 288 258 263 272 272 277 284 282 291 299 303 286 287 285 280 276 287 295 302 307 314 318 318 317 306 298 298 295 286 265 254 243 233 240 229 229 223 215 208 203 195 189 185
260 261 283 298 302 302 288 264 275 292 312 303 303 298 280 293 298 312 305 301 311 315 313 315 312 309 302 293 290 288 275 263 251 238 239 243 241 224 218 211 201 196 192 190
283 279 308 310 296 291 288 263 280 297 316 299 340 302 290 296 312 320 319 310 309 310 311 312 313 314 301 286 283 279 271 269 258 240 234 225 231 235 224 210 207 198 193 192
287 293 310 297 285 278 266 292 292 292 275 287 279 249 290 319 315 313 313 308 306 309 307 308 308 306 303 294 285 277 279 276 267 245 235 226 228 235 225 212 207 202 197 195
269 287 273 263 288 280 305 328 324 14 56 307 272 253 292 295 287 306 317 320 319 318 320 320 321 322 318 310 310 299 294 285 265 246 232 225 220 221 221 215 209 203 198 197
323 311 306 327 331 343 25 29 2 357 358 271 297 280 262 268 277 289 305 316 322 323 326 329 331 332 330 326 326 320 302 288 274 258 234 225 222 212 216 211 208 203 201 203
330 305 300 324 265 281 334 105 119 285 282 296 305 264 262 274 292 303 310 321 329 327 325 327 325 325 325 325 323 319 306 290 283 273 255 228 221 217 219 212 209 207 206 206
250 277 300 297 273 181 357 202 184 184 285 284 278 285 298 287 312 320 329 332 330 327 326 324 321 320 319 320 317 317 310 296 290 283 278 251 230 224 222 215 212 215 206 201
181 269 289 304 312 273 175 163 82 93 303 291 292 280 265 289 299 316 325 326 325 327 325 324 323 322 318 318 318 323 316 308 294 294 288 281 254 230 220 212 213 220 208 197
162 228 298 320 241 238 122 123 142 187 205 243 289 279 241 253 279 304 312 314 317 319 319 320 320 320 319 322 325 326 319 316 308 301 296 293 281 259 231 217 214 218 210 199
185 177 270 262 252 234 204 197 165 201 261 231 262 276 267 265 290 307 311 314 315 314 313 314 315 318 323 324 324 323 319 314 309 305 299 298 285 274 255 235 224 218 211 203
162 160 308 324 338 355 248 222 201 202 233 237 247 268 289 310 311 311 314 313 312 313 314 316 319 321 322 323 324 322 317 310 310 309 300 300 296 279 273 254 239 224 212 202
161 186 205 238 252 242 266 261 238 212 241 253 247 266 286 296 301 306 308 306 308 310 314 317 319 321 324 324 323 323 323 315 312 312 305 294 292 282 273 256 242 229 209 195
175 234 236 252 263 266 265 267 253 236 234 245 263 270 279 288 293 296 298 302 309 314 318 320 320 320 322 323 323 325 323 321 316 314 312 296 289 287 279 264 242 216 202 199
188 240 258 268 257 262 270 267 260 254 247 248 261 272 273 282 288 291 298 302 307 312 316 320 320 322 321 319 320 323 322 320 317 310 310 309 302 295 288 272 233 206 207 203
196 207 249 272 287 295 270 255 242 235 232 232 251 262 281 294 295 294 294 296 302 309 313 317 317 314 312 313 315 317 314 314 315 311 316 318 315 313 304 281 232 207 205 207
190 188 227 277 327 258 249 218 224 242 255 243 249 264 277 279 288 285 276 278 295 303 307 308 307 306 307 308 313 315 319 320 316 315 319 323 327 326 322 308 256 216 206 209
195 188 215 233 256 273 281 256 223 235 270 249 250 267 279 286 304 292 275 275 283 289 293 295 295 296 301 304 311 317 320 320 321 320 319 320 321 321 322 314 299 244 215 215
191 192 211 218 235 255 255 237 225 175 282 260 241 263 279 303 306 295 295 293 293 296 296 296 296 297 301 302 310 315 312 312 312 311 307 307 312 312 310 306 287 274 232 222
172 202 220 229 241 261 255 228 137 213 257 272 252 264 274 264 262 280 294 295 293 296 297 299 298 297 295 299 308 307 304 301 299 301 304 306 309 304 298 301 293 256 239 223
186 193 205 205 227 250 221 162 198 230 250 260 267 271 272 276 281 287 291 293 298 301 302 304 302 299 297 298 300 300 299 297 298 299 303 305 305 302 306 306 300 243 197 217
203 199 197 204 224 242 200 212 234 234 248 258 262 271 273 278 281 286 289 292 294 296 297 298 297 297 297 295 290 292 295 300 302 300 300 302 307 305 301 295 283 235 200 203
235 205 211 243 256 256 256 257 263 258 254 259 262 268 272 274 279 285 288 291 294 296 295 297 299 299 298 297 291 284 290 295 295 296 298 300 306 307 304 294 267 225 218 214
219 197 219 248 264 276 260 247 252 259 263 269 271 268 268 273 280 281 286 289 291 294 294 294 294 293 293 296 295 292 291 293 292 295 295 299 297 296 302 305 290 251 244 229
208 205 218 245 238 232 254 248 246 256 263 265 272 278 278 270 276 283 286 287 290 293 295 296 296 295 294 295 294 297 297 289 290 295 295 293 293 291 290 302 317 302 252 263
Height
1497 1501 1500 1497 1495 1495 1495 1494 1492 1481 1474 1472 1466 1457 1449 1444 1444 1440 1437 1434 1431 1428 1426 1424 1422 1420 1418 1417 1415 1414 1414 1414 1415 1415 1415 1415 1417 1417 1419 1422 1425 1428 1432 1436
1501 1500 1494 1492 1491 1491 1492 1492 1487 1477 1470 1469 1461 1453 1445 1441 1440 1438 1435 1432 1429 1426 1422 1420 1418 1417 1415 1412 1411 1410 1408 1407 1408 1409 1409 1410 1411 1412 1413 1415 1418 1422 1425 1430
1501 1496 1491 1490 1490 1490 1488 1488 1484 1478 1470 1466 1464 1454 1444 1439 1437 1435 1433 1431 1428 1425 1421 1417 1415 1412 1410 1408 1406 1404 1403 1402 1403 1403 1404 1405 1406 1405 1407 1409 1411 1414 1419 1423
1498 1493 1491 1490 1489 1488 1488 1480 1477 1475 1478 1477 1470 1467 1447 1441 1437 1434 1431 1428 1425 1422 1419 1416 1412 1409 1406 1404 1401 1399 1398 1397 1397 1396 1397 1397 1397 1397 1398 1401 1405 1408 1412 1417
1498 1493 1491 1490 1487 1485 1483 1477 1475 1473 1475 1478 1471 1473 1452 1443 1439 1434 1430 1426 1423 1421 1418 1414 1410 1406 1402 1399 1397 1394 1392 1391 1390 1390 1390 1391 1391 1392 1394 1396 1399 1401 1405 1410
1497 1492 1490 1488 1485 1484 1481 1479 1475 1477 1480 1483 1470 1471 1457 1447 1440 1434 1429 1426 1423 1419 1416 1412 1408 1403 1399 1395 1392 1389 1387 1386 1385 1385 1385 1385 1385 1387 1388 1390 1393 1395 1399 1403
1501 1493 1489 1487 1486 1484 1485 1492 1495 1494 1498 1487 1466 1464 1454 1441 1436 1433 1430 1426 1422 1418 1414 1410 1405 1400 1396 1391 1387 1384 1383 1381 1379 1379 1379 1380 1380 1381 1383 1385 1387 1389 1392 1397
1511 1501 1491 1488 1488 1489 1489 1493 1504 1507 1501 1482 1468 1462 1447 1438 1434 1431 1429 1426 1422 1418 1413 1409 1404 1399 1394 1390 1386 1383 1380 1377 1376 1374 1374 1374 1375 1377 1379 1380 1381 1383 1387 1390
1511 1504 1491 1488 1486 1487 1489 1494 1494 1502 1501 1495 1474 1460 1446 1435 1433 1430 1428 1424 1420 1416 1412 1408 1403 1398 1394 1389 1385 1380 1376 1374 1372 1371 1370 1370 1371 1372 1374 1375 1377 1379 1381 1385
1506 1508 1495 1490 1486 1484 1486 1489 1499 1502 1505 1496 1477 1466 1453 1439 1434 1431 1427 1423 1419 1415 1410 1405 1401 1396 1391 1386 1382 1378 1374 1371 1369 1367 1367 1366 1366 1367 1369 1370 1372 1374 1376 1380
1503 1508 1499 1494 1489 1487 1488 1490 1492 1499 1500 1498 1486 1459 1439 1436 1432 1430 1426 1422 1418 1413 1408 1404 1399 1393 1388 1383 1379 1374 1371 1369 1367 1365 1363 1362 1362 1363 1365 1365 1368 1369 1372 1376
1501 1507 1506 1494 1484 1483 1484 1486 1491 1498 1497 1494 1486 1457 1433 1431 1429 1427 1424 1420 1416 1411 1406 1401 1396 1391 1386 1381 1377 1373 1370 1367 1364 1362 1360 1359 1359 1359 1359 1360 1362 1364 1367 1371
1499 1506 1506 1490 1488 1486 1486 1484 1485 1489 1490 1488 1482 1453 1431 1430 1427 1425 1422 1417 1413 1408 1403 1398 1393 1388 1383 1379 1375 1371 1368 1365 1362 1360 1358 1356 1355 1355 1354 1355 1358 1360 1362 1365
1494 1500 1501 1492 1483 1485 1485 1482 1481 1484 1485 1478 1464 1445 1431 1429 1426 1422 1419 1414 1410 1405 1400 1395 1390 1385 1381 1377 1373 1369 1365 1362 1360 1357 1355 1353 1352 1352 1351 1351 1353 1354 1357 1360
1491 1494 1492 1484 1479 1479 1476 1472 1471 1473 1470 1468 1450 1442 1429 1426 1424 1420 1416 1411 1406 1402 1397 1392 1387 1383 1378 1374 1371 1366 1363 1359 1357 1355 1352 1350 1349 1349 1348 1348 1349 1350 1353 1357
1488 1489 1487 1480 1474 1473 1467 1459 1458 1457 1454 1451 1444 1435 1424 1422 1420 1416 1412 1408 1403 1399 1395 1391 1386 1381 1377 1373 1369 1365 1361 1358 1355 1353 1351 1349 1347 1345 1345 1345 1346 1347 1350 1353
1485 1487 1486 1478 1473 1471 1462 1448 1446 1445 1441 1441 1437 1427 1420 1419 1416 1413 1409 1405 1401 1397 1393 1389 1384 1380 1376 1371 1368 1363 1359 1356 1353 1351 1349 1347 1345 1343 1342 1342 1344 1345 1347 1349
1479 1482 1482 1478 1478 1473 1445 1438 1437 1437 1432 1430 1426 1421 1419 1416 1412 1409 1406 1402 1398 1394 1390 1386 1382 1378 1373 1369 1365 1362 1358 1354 1351 1348 1347 1345 1342 1341 1341 1341 1342 1343 1345 1346
1468 1474 1477 1477 1476 1460 1441 1434 1433 1434 1428 1422 1420 1417 1414 1411 1408 1404 1402 1399 1395 1391 1387 1383 1378 1374 1370 1366 1363 1359 1355 1352 1350 1347 1345 1343 1342 1340 1339 1339 1340 1340 1342 1344
1464 1467 1472 1471 1470 1458 1434 1429 1426 1430 1429 1416 1415 1413 1411 1409 1409 1400 1397 1394 1390 1386 1382 1378 1374 1370 1366 1363 1360 1357 1353 1351 1348 1346 1344 1343 1341 1339 1338 1338 1338 1338 1339 1341
1464 1466 1465 1462 1459 1443 1427 1425 1426 1434 1425 1413 1411 1409 1407 1406 1403 1397 1393 1389 1386 1381 1377 1373 1369 1365 1362 1359 1356 1353 1350 1348 1346 1344 1343 1341 1340 1338 1337 1336 1336 1337 1337 1339
1454 1458 1458 1456 1453 1437 1419 1422 1423 1418 1411 1409 1407 1406 1403 1400 1396 1392 1389 1385 1381 1376 1372 1368 1364 1361 1358 1355 1353 1349 1346 1345 1343 1341 1339 1338 1337 1336 1335 1334 1334 1335 1336 1336
1440 1437 1437 1437 1426 1414 1412 1412 1410 1409 1408 1405 1403 1401 1399 1395 1391 1388 1384 1380 1376 1372 1368 1364 1360 1356 1353 1351 1349 1346 1343 1341 1339 1338 1336 1334 1333 1333 1332 1331 1331 1332 1333 1335
1429 1426 1428 1426 1414 1410 1409 1407 1407 1406 1403 1400 1399 1397 1394 1390 1386 1383 1379 1375 1371 1367 1363 1360 1356 1352 1349 1346 1344 1342 1340 1338 1336 1333 1332 1331 1330 1329 1329 1328 1329 1329 1331 1332
1419 1420 1420 1416 1408 1406 1402 1402 1401 1399 1398 1395 1393 1391 1388 1385 1381 1378 1374 1370 1366 1362 1359 1356 1352 1348 1345 1342 1340 1338 1336 1334 1332 1330 1330 1328 1328 1327 1326 1326 1327 1328 1329 1330
1409 1410 1411 1404 1399 1400 1396 1395 1395 1394 1392 1390 1387 1384 1382 1380 1376 1373 1369 1365 1362 1358 1354 1351 1347 1344 1341 1338 1335 1333 1331 1330 1328 1327 1326 1325 1324 1324 1324 1323 1324 1325 1326 1327